,,Stat1,,Stat2,,Stat3,,Stat4,,Wind1,,Wind1,
time,status,PR1M_SUM,status,RH1M_AVG,status,SR1M_AVG,status,TA1M_AVG,status,W1dAve1m,status,W1sAve1m,
1999-09-03, 00:01:00,VALID,0,VALID,100,VALID,-0.0169808,VALID,18.8477,VALID,269,VALID,1.08784,
1999-09-03, 00:02:00,VALID,0,VALID,100,VALID,0,VALID,18.8447,VALID,246,VALID,0.792668,
1999-09-03, 00:03:00,VALID,0,VALID,100,VALID,-0.0169808,VALID,18.8447,VALID,250,VALID,0.939503,
1999-09-03, 00:04:00,VALID,0,VALID,100,VALID,0,VALID,18.8286,VALID,240,VALID,0.638158,
1999-09-03, 00:05:01,VALID,0,VALID,100,VALID,-0.0339617,VALID,18.8092,VALID,240,VALID,0.310444,
1999-09-03, 00:06:00,VALID,0,VALID,100,VALID,-0.0339617,VALID,18.8032,VALID,244,VALID,0.386619,
1999-09-03, 00:07:00,VALID,0,VALID,100,VALID,-0.0169808,VALID,18.7836,VALID,253,VALID,0.361909,
1999-09-03, 00:08:00,VALID,0,VALID,100,VALID,-0.0339617,VALID,18.7644,VALID,232,VALID,0.398438,
1999-09-03, 00:09:00,VALID,0,VALID,100,VALID,-0.0509425,VALID,18.7445,VALID,247,VALID,0.511619,
1999-09-03, 00:10:00,VALID,0,VALID,100,VALID,-0.0339617,VALID,18.7219,VALID,249,VALID,0.564406,
1999-09-03, 00:11:00,VALID,0,VALID,100,VALID,-0.0169808,VALID,18.7127,VALID,210,VALID,0.465583,
1999-09-03, 00:12:00,VALID,0,VALID,100,VALID,-0.0339617,VALID,18.7157,VALID,180,VALID,0.59375,
1999-09-03, 00:13:00,VALID,0,VALID,100,VALID,-0.0169808,VALID,18.6926,VALID,127,VALID,0.793791,
1999-09-03, 00:14:01,VALID,0,VALID,100,VALID,-0.0509425,VALID,18.6769,VALID,118,VALID,0.916797,
1999-09-03, 00:15:00,VALID,0,VALID,100,VALID,0,VALID,18.6642,VALID,129,VALID,0.758018,
1999-09-03, 00:16:01,VALID,0,VALID,100,VALID,-0.0339617,VALID,18.6513,VALID,123,VALID,0.766211,
1999-09-03, 00:17:00,VALID,0,VALID,100,VALID,-0.0169808,VALID,18.6289,VALID,120,VALID,0.760485,
1999-09-03, 00:18:00,VALID,0,VALID,100,VALID,-0.0339617,VALID,18.5861,VALID,140,VALID,1.01895,
1999-09-03, 00:19:00,VALID,0,VALID,100,VALID,-0.0339617,VALID,18.5735,VALID,154,VALID,1.26028,
1999-09-03, 00:20:00,VALID,0,VALID,100,VALID,-0.0339617,VALID,18.5573,VALID,191,VALID,0.736328,
1999-09-03, 00:21:00,VALID,0,VALID,100,VALID,-0.0339617,VALID,18.5379,VALID,214,VALID,0.929276,
1999-09-03, 00:22:00,VALID,0,VALID,100,VALID,-0.0509425,VALID,18.5314,VALID,224,VALID,0.913867,
1999-09-03, 00:23:00,VALID,0,VALID,100,VALID,-0.0339617,VALID,18.5416,VALID,218,VALID,1.27734,
1999-09-03, 00:24:00,VALID,0,VALID,100,VALID,-0.0509425,VALID,18.5448,VALID,213,VALID,1.47656,
1999-09-03, 00:25:01,VALID,0,VALID,100,VALID,-0.0339617,VALID,18.5767,VALID,197,VALID,1.21546,
1999-09-03, 00:26:01,VALID,0,VALID,100,VALID,-0.0339617,VALID,18.5965,VALID,177,VALID,1.16465,
1999-09-03, 00:27:00,VALID,0,VALID,100,VALID,-0.0509425,VALID,18.5963,VALID,177,VALID,1.46464,
1999-09-03, 00:28:00,VALID,0,VALID,100,VALID,-0.0169808,VALID,18.6289,VALID,158,VALID,1.25273,
1999-09-03, 00:29:00,VALID,0,VALID,100,VALID,-0.0169808,VALID,18.642,VALID,150,VALID,1.24219,
1999-09-03, 00:30:00,VALID,0,VALID,100,VALID,-0.0679233,VALID,18.6289,VALID,124,VALID,1.27598,
1999-09-03, 00:31:00,VALID,0,VALID,100,VALID,-0.0169808,VALID,18.6155,VALID,111,VALID,1.43442,
1999-09-03, 00:32:00,VALID,0,VALID,100,VALID,-0.0509425,VALID,18.6284,VALID,106,VALID,1.27559,
1999-09-03, 00:33:00,VALID,0,VALID,100,VALID,-0.0339617,VALID,18.6192,VALID,119,VALID,1.11945,
1999-09-03, 00:34:00,VALID,0,VALID,100,VALID,-0.0849042,VALID,18.6192,VALID,148,VALID,0.854102,
1999-09-03, 00:35:00,VALID,0,VALID,100,VALID,-0.0339617,VALID,18.6092,VALID,185,VALID,0.94264,
1999-09-03, 00:36:00,VALID,0,VALID,100,VALID,0,VALID,18.603,VALID,207,VALID,1.22207,
1999-09-03, 00:37:01,VALID,0,VALID,100,VALID,-0.0169808,VALID,18.5891,VALID,200,VALID,1.62253,
1999-09-03, 00:38:00,VALID,0,VALID,100,VALID,-0.0339617,VALID,18.6125,VALID,190,VALID,1.21719,
1999-09-03, 00:39:00,VALID,0,VALID,100,VALID,0,VALID,18.6053,VALID,177,VALID,1.05201,
1999-09-03, 00:40:00,VALID,0,VALID,100,VALID,-0.0169808,VALID,18.6319,VALID,167,VALID,0.974414,
1999-09-03, 00:41:00,VALID,0,VALID,100,VALID,-0.0169808,VALID,18.645,VALID,139,VALID,1.00576,
1999-09-03, 00:42:00,VALID,0,VALID,100,VALID,-0.0509425,VALID,18.6448,VALID,132,VALID,1.1002,
1999-09-03, 00:43:00,VALID,0,VALID,100,VALID,-0.0169808,VALID,18.6448,VALID,137,VALID,1.18606,
1999-09-03, 00:44:00,VALID,0,VALID,100,VALID,-0.0169808,VALID,18.6483,VALID,149,VALID,1.26992,
1999-09-03, 00:45:00,VALID,0,VALID,100,VALID,-0.0169808,VALID,18.6349,VALID,142,VALID,1.03475,
1999-09-03, 00:46:00,VALID,0,VALID,100,VALID,-0.0339617,VALID,18.6155,VALID,127,VALID,0.932227,
1999-09-03, 00:47:00,VALID,0,VALID,100,VALID,0,VALID,18.6254,VALID,117,VALID,1.30078,
1999-09-03, 00:48:01,VALID,0,VALID,100,VALID,-0.0169808,VALID,18.6152,VALID,121,VALID,1.09141,
1999-09-03, 00:49:00,VALID,0,VALID,100,VALID,-0.0169808,VALID,18.6062,VALID,129,VALID,1.27775,
1999-09-03, 00:50:00,VALID,0,VALID,100,VALID,-0.0509425,VALID,18.603,VALID,170,VALID,0.875977,
1999-09-03, 00:51:00,VALID,0,VALID,100,VALID,-0.0849042,VALID,18.5998,VALID,186,VALID,1.11739,
1999-09-03, 00:52:00,VALID,0,VALID,100,VALID,-0.0849042,VALID,18.5834,VALID,202,VALID,1.06309,
1999-09-03, 00:53:00,VALID,0,VALID,100,VALID,-0.0509425,VALID,18.5931,VALID,196,VALID,1.05736,
1999-09-03, 00:54:00,VALID,0,VALID,100,VALID,-0.0169808,VALID,18.5965,VALID,182,VALID,1.01719,
1999-09-03, 00:55:00,VALID,0,VALID,100,VALID,-0.0169808,VALID,18.5901,VALID,196,VALID,0.954975,
1999-09-03, 00:56:00,VALID,0,VALID,100,VALID,-0.0169808,VALID,18.5871,VALID,194,VALID,0.664258,
1999-09-03, 00:57:00,VALID,0,VALID,100,VALID,-0.0849042,VALID,18.5672,VALID,192,VALID,0.777961,
1999-09-03, 00:58:01,VALID,0,VALID,100,VALID,-0.0339617,VALID,18.5677,VALID,189,VALID,0.825977,
1999-09-03, 00:59:00,VALID,0,VALID,100,VALID,-0.0169808,VALID,18.5672,VALID,180,VALID,0.413035,
1999-09-03, 01:00:00,VALID,0,VALID,100,VALID,-0.0679233,VALID,18.5707,VALID,182,VALID,0.478906,
1999-09-03, 01:01:00,VALID,0,VALID,100,VALID,-0.0339617,VALID,18.5675,VALID,183,VALID,0.461965,
1999-09-03, 01:02:00,VALID,0,VALID,100,VALID,-0.0679233,VALID,18.5806,VALID,185,VALID,0.524219,
1999-09-03, 01:03:00,VALID,0,VALID,100,VALID,-0.0169808,VALID,18.5965,VALID,176,VALID,0.30366,
1999-09-03, 01:04:00,VALID,0,VALID,100,VALID,0.0169808,VALID,18.6145,VALID,164,VALID,0.0603516,
1999-09-03, 01:05:00,VALID,0,VALID,100,VALID,0.0679233,VALID,18.6245,VALID,135,VALID,0.104852,
1999-09-03, 01:06:00,VALID,0,VALID,100,VALID,0.0849042,VALID,18.621,VALID,96,VALID,0.480273,
1999-09-03, 01:07:00,VALID,0,VALID,100,VALID,0.0509425,VALID,18.6143,VALID,69,VALID,0.457648,
1999-09-03, 01:08:00,VALID,0,VALID,100,VALID,0.0679233,VALID,18.5917,VALID,33,VALID,0.565234,
1999-09-03, 01:09:01,VALID,0,VALID,100,VALID,0.0509425,VALID,18.5981,VALID,10,VALID,0.64926,
1999-09-03, 01:10:01,VALID,0,VALID,100,VALID,0.0509425,VALID,18.6111,VALID,350,VALID,0.539063,
1999-09-03, 01:11:00,VALID,0,VALID,100,VALID,0.0509425,VALID,18.6113,VALID,312,VALID,0.547492,
1999-09-03, 01:12:00,VALID,0,VALID,100,VALID,0.0849042,VALID,18.6152,VALID,300,VALID,0.441406,
1999-09-03, 01:13:00,VALID,0,VALID,100,VALID,0.0509425,VALID,18.5917,VALID,302,VALID,0.368832,
1999-09-03, 01:14:00,VALID,0,VALID,100,VALID,0,VALID,18.5984,VALID,272,VALID,0.0226563,
1999-09-03, 01:15:00,VALID,0,VALID,100,VALID,0.0849042,VALID,18.6076,VALID,231,VALID,0.290707,
1999-09-03, 01:16:00,VALID,0,VALID,100,VALID,0.0849042,VALID,18.5981,VALID,198,VALID,0.879687,
1999-09-03, 01:17:00,VALID,0,VALID,100,VALID,0.0679233,VALID,18.572,VALID,184,VALID,0.969778,
1999-09-03, 01:18:00,VALID,0,VALID,100,VALID,0.0849042,VALID,18.5497,VALID,153,VALID,0.755859,
1999-09-03, 01:19:00,VALID,0,VALID,100,VALID,0,VALID,18.5247,VALID,132,VALID,0.377056,
1999-09-03, 01:20:01,VALID,0,VALID,100,VALID,-0.0169808,VALID,18.5515,VALID,128,VALID,0.186523,
1999-09-03, 01:21:01,VALID,0,VALID,100,VALID,-0.0339617,VALID,18.5411,VALID,46,VALID,0.415296,
1999-09-03, 01:22:00,VALID,0,VALID,100,VALID,-0.0169808,VALID,18.5381,VALID,334,VALID,0.683789,
1999-09-03, 01:23:00,VALID,0,VALID,100,VALID,-0.0339617,VALID,18.5679,VALID,317,VALID,0.409539,
1999-09-03, 01:24:00,VALID,0,VALID,100,VALID,-0.0509425,VALID,18.5772,VALID,317,VALID,0.156641,
1999-09-03, 01:25:00,VALID,0,VALID,100,VALID,-0.0509425,VALID,18.5705,VALID,254,VALID,0.00246711,
1999-09-03, 01:26:00,VALID,0,VALID,100,VALID,-0.0849042,VALID,18.5802,VALID,201,VALID,0.420312,
1999-09-03, 01:27:00,VALID,0,VALID,100,VALID,-0.0339617,VALID,18.5608,VALID,188,VALID,0.497944,
1999-09-03, 01:28:00,VALID,0,VALID,100,VALID,-0.0509425,VALID,18.5347,VALID,181,VALID,0.462891,
1999-09-03, 01:29:00,VALID,0,VALID,100,VALID,0,VALID,18.4961,VALID,177,VALID,0.381168,
1999-09-03, 01:30:00,VALID,0,VALID,100,VALID,-0.0509425,VALID,18.4737,VALID,177,VALID,0.0423828,
1999-09-03, 01:31:00,VALID,0,VALID,100,VALID,-0.0509425,VALID,18.4449,VALID,176,VALID,0.0304276,
1999-09-03, 01:32:01,VALID,0,VALID,100,VALID,-0.0679233,VALID,18.4414,VALID,133,VALID,0.38457,
1999-09-03, 01:33:00,VALID,0,VALID,100,VALID,-0.0509425,VALID,18.4248,VALID,97,VALID,0.530222,
1999-09-03, 01:34:00,VALID,0,VALID,100,VALID,-0.0679233,VALID,18.4257,VALID,93,VALID,0.569141,
1999-09-03, 01:35:00,VALID,0,VALID,100,VALID,-0.0509425,VALID,18.422,VALID,91,VALID,0.524671,
1999-09-03, 01:36:00,VALID,0,VALID,100,VALID,-0.0679233,VALID,18.425,VALID,91,VALID,0.387891,
1999-09-03, 01:37:00,VALID,0,VALID,100,VALID,-0.0169808,VALID,18.4188,VALID,93,VALID,0.11986,
1999-09-03, 01:38:00,VALID,0,VALID,100,VALID,-0.0509425,VALID,18.3992,VALID,144,VALID,0,
1999-09-03, 01:39:00,VALID,0,VALID,100,VALID,-0.0679233,VALID,18.3768,VALID,176,VALID,0.460526,
1999-09-03, 01:40:00,VALID,0,VALID,100,VALID,-0.0509425,VALID,18.3705,VALID,189,VALID,0.773438,
1999-09-03, 01:41:00,VALID,0,VALID,100,VALID,-0.0339617,VALID,18.3638,VALID,207,VALID,0.675164,
1999-09-03, 01:42:01,VALID,0,VALID,100,VALID,-0.0849042,VALID,18.3514,VALID,220,VALID,0.471289,
1999-09-03, 01:43:00,VALID,0,VALID,100,VALID,-0.0169808,VALID,18.3444,VALID,214,VALID,0.0553043,
1999-09-03, 01:44:00,VALID,0,VALID,100,VALID,-0.0169808,VALID,18.3442,VALID,208,VALID,0,
1999-09-03, 01:45:00,VALID,0,VALID,100,VALID,-0.0169808,VALID,18.3541,VALID,209,VALID,0,
1999-09-03, 01:46:00,VALID,0,VALID,100,VALID,-0.0679233,VALID,18.3775,VALID,228,VALID,0,
1999-09-03, 01:47:00,VALID,0,VALID,100,VALID,-0.0849042,VALID,18.3805,VALID,243,VALID,0,
1999-09-03, 01:48:00,VALID,0,VALID,100,VALID,-0.0169808,VALID,18.3765,VALID,247,VALID,0,
1999-09-03, 01:49:00,VALID,0,VALID,100,VALID,0,VALID,18.3765,VALID,259,VALID,0.388363,
1999-09-03, 01:50:00,VALID,0,VALID,100,VALID,0.0169808,VALID,18.3957,VALID,267,VALID,0.507617,
1999-09-03, 01:51:00,VALID,0,VALID,100,VALID,0.0169808,VALID,18.4118,VALID,252,VALID,0.400288,
1999-09-03, 01:52:00,VALID,0,VALID,100,VALID,0,VALID,18.4118,VALID,255,VALID,0.610742,
1999-09-03, 01:53:01,VALID,0,VALID,100,VALID,0.0169808,VALID,18.4215,VALID,253,VALID,0.41838,
1999-09-03, 01:54:01,VALID,0,VALID,100,VALID,-0.0169808,VALID,18.4218,VALID,250,VALID,0.505859,
1999-09-03, 01:55:00,VALID,0,VALID,100,VALID,0.0169808,VALID,18.4056,VALID,236,VALID,0.702919,
1999-09-03, 01:56:00,VALID,0,VALID,100,VALID,0,VALID,18.4024,VALID,221,VALID,0.883984,
1999-09-03, 01:57:00,VALID,0,VALID,100,VALID,0,VALID,18.3927,VALID,213,VALID,1.00596,
1999-09-03, 01:58:00,VALID,0,VALID,100,VALID,0,VALID,18.3731,VALID,213,VALID,1.01582,
1999-09-03, 01:59:00,VALID,0,VALID,100,VALID,0.0169808,VALID,18.3733,VALID,209,VALID,0.926809,
1999-09-03, 02:00:00,VALID,0,VALID,100,VALID,0,VALID,18.3765,VALID,198,VALID,0.873438,
1999-09-03, 02:01:00,VALID,0,VALID,100,VALID,0,VALID,18.3601,VALID,193,VALID,1.20066,
1999-09-03, 02:02:00,VALID,0,VALID,100,VALID,0.0169808,VALID,18.3765,VALID,191,VALID,1.4668,
1999-09-03, 02:03:00,VALID,0,VALID,100,VALID,0.0169808,VALID,18.3733,VALID,173,VALID,0.815173,
1999-09-03, 02:04:01,VALID,0,VALID,100,VALID,0,VALID,18.3537,VALID,169,VALID,1.05098,
1999-09-03, 02:05:01,VALID,0,VALID,100,VALID,0.0169808,VALID,18.344,VALID,175,VALID,1.00843,
1999-09-03, 02:06:00,VALID,0,VALID,100,VALID,0,VALID,18.3377,VALID,170,VALID,1.14551,
1999-09-03, 02:07:00,VALID,0,VALID,100,VALID,0.0169808,VALID,18.308,VALID,172,VALID,1.05777,
1999-09-03, 02:08:00,VALID,0,VALID,100,VALID,0,VALID,18.305,VALID,198,VALID,1.45684,
1999-09-03, 02:09:00,VALID,0,VALID,100,VALID,0,VALID,18.3149,VALID,207,VALID,1.33902,
1999-09-03, 02:10:00,VALID,0,VALID,100,VALID,0,VALID,18.3084,VALID,205,VALID,1.18008,
1999-09-03, 02:11:00,VALID,0,VALID,100,VALID,0.0169808,VALID,18.3117,VALID,193,VALID,1.20806,
1999-09-03, 02:12:00,VALID,0,VALID,100,VALID,0,VALID,18.3087,VALID,214,VALID,1.02031,
1999-09-03, 02:13:00,VALID,0,VALID,100,VALID,0,VALID,18.3248,VALID,211,VALID,1.72533,
1999-09-03, 02:14:00,VALID,0,VALID,100,VALID,0,VALID,18.3571,VALID,209,VALID,1.54004,
1999-09-03, 02:15:00,VALID,0,VALID,100,VALID,0.0169808,VALID,18.3671,VALID,178,VALID,0.956003,
1999-09-03, 02:16:01,VALID,0,VALID,100,VALID,0,VALID,18.3571,VALID,195,VALID,1.27383,
1999-09-03, 02:17:00,VALID,0,VALID,100,VALID,0,VALID,18.3477,VALID,196,VALID,1.18359,
1999-09-03, 02:18:00,VALID,0,VALID,100,VALID,0,VALID,18.3377,VALID,196,VALID,1.40234,
1999-09-03, 02:19:00,VALID,0,VALID,100,VALID,0.0169808,VALID,18.3246,VALID,203,VALID,1.19552,
1999-09-03, 02:20:00,VALID,0,VALID,100,VALID,0,VALID,18.3214,VALID,198,VALID,1.10156,
1999-09-03, 02:21:00,VALID,0,VALID,100,VALID,0.0169808,VALID,18.322,VALID,192,VALID,1.11123,
1999-09-03, 02:22:00,VALID,0,VALID,100,VALID,0,VALID,18.3188,VALID,188,VALID,0.818164,
1999-09-03, 02:23:00,VALID,0,VALID,100,VALID,0.0169808,VALID,18.2987,VALID,211,VALID,0.610609,
1999-09-03, 02:24:00,VALID,0,VALID,100,VALID,0,VALID,18.3057,VALID,174,VALID,0.439453,
1999-09-03, 02:25:00,VALID,0,VALID,100,VALID,0,VALID,18.299,VALID,156,VALID,0.506168,
1999-09-03, 02:26:01,VALID,0,VALID,100,VALID,0,VALID,18.2893,VALID,159,VALID,0.467773,
1999-09-03, 02:27:01,VALID,0,VALID,100,VALID,0.0169808,VALID,18.2994,VALID,146,VALID,0.406456,
1999-09-03, 02:28:00,VALID,0,VALID,100,VALID,0.0169808,VALID,18.2955,VALID,144,VALID,0.213281,
1999-09-03, 02:29:00,VALID,0,VALID,100,VALID,0.0169808,VALID,18.2992,VALID,153,VALID,0.302015,
1999-09-03, 02:30:00,VALID,0,VALID,100,VALID,0.0339617,VALID,18.2793,VALID,181,VALID,0.487109,
1999-09-03, 02:31:00,VALID,0,VALID,100,VALID,0.0169808,VALID,18.2666,VALID,203,VALID,0.406044,
1999-09-03, 02:32:00,VALID,0,VALID,100,VALID,0,VALID,18.2606,VALID,210,VALID,0.692773,
1999-09-03, 02:33:00,VALID,0,VALID,100,VALID,0.0169808,VALID,18.2567,VALID,198,VALID,0.873355,
1999-09-03, 02:34:00,VALID,0,VALID,100,VALID,-0.0849042,VALID,18.2807,VALID,144,VALID,0.679297,
1999-09-03, 02:35:00,VALID,0,VALID,100,VALID,-0.101885,VALID,18.268,VALID,168,VALID,0.737459,
1999-09-03, 02:36:00,VALID,0,VALID,100,VALID,-0.101885,VALID,18.2717,VALID,178,VALID,0.702148,
1999-09-03, 02:37:01,VALID,0,VALID,100,VALID,-0.0849042,VALID,18.2514,VALID,195,VALID,0.411184,
1999-09-03, 02:38:01,VALID,0,VALID,100,VALID,-0.0849042,VALID,18.2588,VALID,200,VALID,0.591211,
1999-09-03, 02:39:00,VALID,0,VALID,100,VALID,-0.101885,VALID,18.2713,VALID,153,VALID,0.497944,
1999-09-03, 02:40:00,VALID,0,VALID,100,VALID,-0.101885,VALID,18.2941,VALID,114,VALID,0.605859,
1999-09-03, 02:41:00,VALID,0,VALID,100,VALID,-0.101885,VALID,18.2648,VALID,116,VALID,0.756168,
1999-09-03, 02:42:00,VALID,0,VALID,99.999,VALID,-0.101885,VALID,18.1805,VALID,120,VALID,0.953516,
1999-09-03, 02:43:00,VALID,0,VALID,99.999,VALID,-0.0849042,VALID,18.178,VALID,127,VALID,0.811678,
1999-09-03, 02:44:00,VALID,0,VALID,100,VALID,-0.0849042,VALID,18.1678,VALID,155,VALID,0.835547,
1999-09-03, 02:45:00,VALID,0,VALID,100,VALID,-0.0849042,VALID,18.1609,VALID,159,VALID,0.891653,
1999-09-03, 02:46:00,VALID,0,VALID,100,VALID,-0.0849042,VALID,18.1842,VALID,175,VALID,0.717773,
1999-09-03, 02:47:00,VALID,0,VALID,100,VALID,-0.101885,VALID,18.187,VALID,181,VALID,0.889391,
1999-09-03, 02:48:01,VALID,0,VALID,100,VALID,-0.101885,VALID,18.2131,VALID,193,VALID,0.640234,
1999-09-03, 02:49:01,VALID,0,VALID,100,VALID,0,VALID,18.2249,VALID,195,VALID,0.396587,
1999-09-03, 02:50:00,VALID,0,VALID,100,VALID,0,VALID,18.2244,VALID,156,VALID,0.673242,
1999-09-03, 02:51:00,VALID,0,VALID,100,VALID,0,VALID,18.2214,VALID,141,VALID,0.672081,
1999-09-03, 02:52:00,VALID,0,VALID,100,VALID,0,VALID,18.2015,VALID,154,VALID,0.688672,
1999-09-03, 02:53:00,VALID,0,VALID,99.9944,VALID,0.0169808,VALID,18.1888,VALID,180,VALID,0.698808,
1999-09-03, 02:54:00,VALID,0,VALID,99.9977,VALID,0,VALID,18.1794,VALID,201,VALID,0.828906,
1999-09-03, 02:55:00,VALID,0,VALID,100,VALID,0,VALID,18.1761,VALID,203,VALID,1.24465,
1999-09-03, 02:56:00,VALID,0,VALID,100,VALID,0.0169808,VALID,18.1888,VALID,198,VALID,1.08672,
1999-09-03, 02:57:00,VALID,0,VALID,99.9977,VALID,0,VALID,18.205,VALID,201,VALID,0.824013,
1999-09-03, 02:58:00,VALID,0,VALID,99.9941,VALID,-0.0169808,VALID,18.2154,VALID,199,VALID,0.68457,
1999-09-03, 02:59:00,VALID,0,VALID,99.9797,VALID,-0.0169808,VALID,18.1988,VALID,174,VALID,0.629934,
1999-09-03, 03:00:01,VALID,0,VALID,99.9799,VALID,0.0169808,VALID,18.1958,VALID,164,VALID,0.41582,
1999-09-03, 03:01:00,VALID,0,VALID,99.9647,VALID,0,VALID,18.1995,VALID,163,VALID,0.340049,
1999-09-03, 03:02:00,VALID,0,VALID,99.9418,VALID,0,VALID,18.1665,VALID,169,VALID,0.459766,
1999-09-03, 03:03:00,VALID,0,VALID,99.988,VALID,0.0169808,VALID,18.1729,VALID,183,VALID,0.697985,
1999-09-03, 03:04:00,VALID,0,VALID,99.9888,VALID,-0.118866,VALID,18.1808,VALID,194,VALID,0.740234,
1999-09-03, 03:05:00,VALID,0,VALID,99.9934,VALID,-0.0849042,VALID,18.1974,VALID,202,VALID,0.501234,
1999-09-03, 03:06:00,VALID,0,VALID,99.9896,VALID,-0.101885,VALID,18.1872,VALID,223,VALID,0.559961,
1999-09-03, 03:07:00,VALID,0,VALID,99.9822,VALID,-0.101885,VALID,18.1872,VALID,210,VALID,0.856908,
1999-09-03, 03:08:00,VALID,0,VALID,99.9921,VALID,-0.101885,VALID,18.1706,VALID,228,VALID,0.60918,
1999-09-03, 03:09:01,VALID,0,VALID,99.9812,VALID,-0.101885,VALID,18.1777,VALID,214,VALID,0.351357,
1999-09-03, 03:10:01,VALID,0,VALID,99.9837,VALID,-0.118866,VALID,18.1646,VALID,233,VALID,0.384961,
1999-09-03, 03:11:01,VALID,0,VALID,99.999,VALID,-0.101885,VALID,18.1683,VALID,239,VALID,0.296464,
1999-09-03, 03:12:00,VALID,0,VALID,100,VALID,-0.0849042,VALID,18.1745,VALID,249,VALID,0.428516,
1999-09-03, 03:13:00,VALID,0,VALID,100,VALID,-0.135847,VALID,18.1814,VALID,272,VALID,0.387747,
1999-09-03, 03:14:00,VALID,0,VALID,100,VALID,-0.118866,VALID,18.1808,VALID,287,VALID,0.141406,
1999-09-03, 03:15:00,VALID,0,VALID,100,VALID,-0.0849042,VALID,18.1874,VALID,282,VALID,0,
1999-09-03, 03:16:00,VALID,0,VALID,100,VALID,-0.101885,VALID,18.1775,VALID,242,VALID,0.0902344,
1999-09-03, 03:17:00,VALID,0,VALID,100,VALID,-0.101885,VALID,18.1907,VALID,237,VALID,0.0143914,
1999-09-03, 03:18:00,VALID,0,VALID,100,VALID,-0.118866,VALID,18.1907,VALID,197,VALID,0.191406,
1999-09-03, 03:19:00,VALID,0,VALID,100,VALID,0,VALID,18.1798,VALID,177,VALID,0.480058,
1999-09-03, 03:20:01,VALID,0,VALID,100,VALID,0,VALID,18.1662,VALID,178,VALID,0.626758,
1999-09-03, 03:21:01,VALID,0,VALID,100,VALID,0.0169808,VALID,18.1794,VALID,177,VALID,0.68935,
1999-09-03, 03:22:01,VALID,0,VALID,100,VALID,0,VALID,18.1667,VALID,173,VALID,0.535352,
1999-09-03, 03:23:00,VALID,0,VALID,99.9883,VALID,0,VALID,18.1154,VALID,157,VALID,0.534539,
1999-09-03, 03:24:00,VALID,0,VALID,99.9596,VALID,0,VALID,18.0566,VALID,154,VALID,0.290234,
1999-09-03, 03:25:00,VALID,0,VALID,99.9735,VALID,0,VALID,18.0212,VALID,170,VALID,0.217516,
1999-09-03, 03:26:00,VALID,0,VALID,99.9799,VALID,0,VALID,17.9956,VALID,177,VALID,0,
1999-09-03, 03:27:00,VALID,0,VALID,99.9858,VALID,-0.0169808,VALID,17.9661,VALID,177,VALID,0,
1999-09-03, 03:28:00,VALID,0,VALID,99.987,VALID,-0.0169808,VALID,17.9501,VALID,169,VALID,0,
1999-09-03, 03:29:00,VALID,0,VALID,100,VALID,0,VALID,17.9629,VALID,165,VALID,0,
1999-09-03, 03:30:00,VALID,0,VALID,100,VALID,-0.0169808,VALID,17.9695,VALID,165,VALID,0,
1999-09-03, 03:31:00,VALID,0,VALID,100,VALID,0,VALID,17.9661,VALID,165,VALID,0,
1999-09-03, 03:32:01,VALID,0,VALID,100,VALID,0,VALID,17.9857,VALID,165,VALID,0,
1999-09-03, 03:33:00,VALID,0,VALID,100,VALID,-0.0169808,VALID,18.0051,VALID,195,VALID,0.248972,
1999-09-03, 03:34:00,VALID,0,VALID,100,VALID,0,VALID,17.9982,VALID,208,VALID,0.829102,
1999-09-03, 03:35:00,VALID,0,VALID,100,VALID,0,VALID,18.0568,VALID,205,VALID,0.953331,
1999-09-03, 03:36:00,VALID,0,VALID,100,VALID,-0.0169808,VALID,18.0988,VALID,199,VALID,0.935156,
1999-09-03, 03:37:00,VALID,0,VALID,100,VALID,0,VALID,18.1281,VALID,192,VALID,0.742804,
1999-09-03, 03:38:00,VALID,0,VALID,100,VALID,0,VALID,18.1376,VALID,192,VALID,0.24082,
1999-09-03, 03:39:00,VALID,0,VALID,100,VALID,0,VALID,18.1214,VALID,190,VALID,0.105058,
1999-09-03, 03:40:00,VALID,0,VALID,100,VALID,0,VALID,18.1094,VALID,190,VALID,0,
1999-09-03, 03:41:00,VALID,0,VALID,100,VALID,0,VALID,18.0764,VALID,194,VALID,0.0378289,
1999-09-03, 03:42:01,VALID,0,VALID,100,VALID,0,VALID,18.0863,VALID,198,VALID,0.316211,
1999-09-03, 03:43:00,VALID,0,VALID,100,VALID,0,VALID,18.112,VALID,193,VALID,0.637952,
1999-09-03, 03:44:00,VALID,0,VALID,100,VALID,0,VALID,18.118,VALID,192,VALID,0.546289,
1999-09-03, 03:45:00,VALID,0,VALID,100,VALID,0,VALID,18.1542,VALID,189,VALID,0.629523,
1999-09-03, 03:46:00,VALID,0,VALID,100,VALID,0,VALID,18.2122,VALID,189,VALID,0.471094,
1999-09-03, 03:47:00,VALID,0,VALID,100,VALID,0,VALID,18.2341,VALID,172,VALID,0.420641,
1999-09-03, 03:48:00,VALID,0,VALID,100,VALID,0,VALID,18.2507,VALID,178,VALID,0.185352,
1999-09-03, 03:49:00,VALID,0,VALID,100,VALID,0,VALID,18.2805,VALID,182,VALID,0,
1999-09-03, 03:50:00,VALID,0,VALID,100,VALID,0,VALID,18.2701,VALID,182,VALID,0,
1999-09-03, 03:51:00,VALID,0,VALID,100,VALID,0,VALID,18.2863,VALID,182,VALID,0,
1999-09-03, 03:52:00,VALID,0,VALID,100,VALID,-0.0339617,VALID,18.2796,VALID,182,VALID,0,
1999-09-03, 03:53:01,VALID,0,VALID,99.9756,VALID,0,VALID,18.2341,VALID,190,VALID,0,
1999-09-03, 03:54:01,VALID,0,VALID,99.9832,VALID,0.0169808,VALID,18.1893,VALID,194,VALID,0,
1999-09-03, 03:55:00,VALID,0,VALID,99.9908,VALID,-0.0169808,VALID,18.1637,VALID,151,VALID,0.335732,
1999-09-03, 03:56:00,VALID,0,VALID,99.9672,VALID,0,VALID,18.1152,VALID,126,VALID,0.536914,
1999-09-03, 03:57:00,VALID,0,VALID,99.9367,VALID,0.0169808,VALID,18.0439,VALID,124,VALID,0.702303,
1999-09-03, 03:58:00,VALID,0,VALID,99.9583,VALID,0,VALID,18.0215,VALID,131,VALID,0.745703,
1999-09-03, 03:59:00,VALID,0,VALID,100,VALID,-0.0169808,VALID,18.07,VALID,139,VALID,0.907278,
1999-09-03, 04:00:00,VALID,0,VALID,100,VALID,0,VALID,18.0863,VALID,146,VALID,1.07969,
1999-09-03, 04:01:00,VALID,0,VALID,100,VALID,0,VALID,18.073,VALID,160,VALID,0.976563,
1999-09-03, 04:02:00,VALID,0,VALID,99.9954,VALID,0,VALID,18.0506,VALID,165,VALID,1.19961,
1999-09-03, 04:03:00,VALID,0,VALID,99.998,VALID,0,VALID,18.0441,VALID,175,VALID,1.11431,
1999-09-03, 04:04:01,VALID,0,VALID,99.9967,VALID,-0.0169808,VALID,18.0083,VALID,187,VALID,1.01523,
1999-09-03, 04:05:01,VALID,0,VALID,100,VALID,0,VALID,18.0182,VALID,201,VALID,1.21053,
1999-09-03, 04:06:00,VALID,0,VALID,100,VALID,0,VALID,18.015,VALID,206,VALID,1.44766,
1999-09-03, 04:07:00,VALID,0,VALID,100,VALID,-0.0169808,VALID,18.0314,VALID,213,VALID,1.10485,
1999-09-03, 04:08:00,VALID,0,VALID,100,VALID,0,VALID,18.0212,VALID,198,VALID,1.31152,
1999-09-03, 04:09:00,VALID,0,VALID,100,VALID,0.0169808,VALID,18.0212,VALID,198,VALID,1.37911,
1999-09-03, 04:10:00,VALID,0,VALID,100,VALID,0,VALID,18.0049,VALID,196,VALID,1.08672,
1999-09-03, 04:11:00,VALID,0,VALID,100,VALID,0.0169808,VALID,18.0019,VALID,189,VALID,0.977179,
1999-09-03, 04:12:00,VALID,0,VALID,100,VALID,0,VALID,17.9954,VALID,171,VALID,1.07754,
1999-09-03, 04:13:00,VALID,0,VALID,100,VALID,0,VALID,17.9859,VALID,185,VALID,1.13692,
1999-09-03, 04:14:00,VALID,0,VALID,100,VALID,0.0169808,VALID,18.0023,VALID,213,VALID,1.09824,
1999-09-03, 04:15:00,VALID,0,VALID,100,VALID,-0.0169808,VALID,18.0083,VALID,218,VALID,1.48972,